Temperature
14 13 12 12 11 11 11 11 10 10 10 10 9 9 9 9 9 9 9 9 9 10 10 10 10 10 11 11 11 12 12 12 12 13 13 13 13 13 14 14 14 15 15
13 13 12 12 11 11 11 10 10 10 10 9 9 9 9 9 9 9 9 9 9 9 9 9 10 10 10 10 11 11 11 12 12 12 12 13 13 13 13 13 14 14 15
13 12 12 11 11 11 10 10 10 9 9 9 9 9 9 9 9 9 9 9 9 9 9 9 9 9 9 10 10 11 11 11 11 11 12 12 12 13 13 13 14 14 14
13 12 12 11 11 10 10 10 10 9 9 9 9 9 9 9 9 9 8 8 8 8 9 9 9 9 9 9 10 10 10 11 11 11 11 12 12 12 12 13 13 13 14
13 12 12 11 11 10 10 10 10 9 9 9 9 9 9 9 9 9 8 8 8 8 8 8 8 8 9 9 9 10 10 10 11 11 11 12 12 12 12 12 12 13 13
12 12 12 11 11 10 10 10 10 9 9 9 9 9 9 9 9 9 8 8 8 8 8 8 8 8 8 8 9 9 9 9 10 11 11 12 11 12 12 12 12 12 12
12 12 11 11 11 10 10 10 9 9 9 9 9 9 9 9 9 9 8 8 8 8 8 8 8 9 8 8 8 8 9 9 9 9 10 11 11 11 11 12 12 12 12
12 12 11 11 10 10 10 10 9 9 9 9 9 9 9 9 9 8 8 8 8 8 8 8 8 8 8 8 8 8 8 8 9 9 9 10 10 10 11 11 11 11 11
12 12 11 11 10 10 10 10 9 9 9 9 9 9 9 9 9 8 8 7 7 8 8 8 8 7 8 7 7 7 8 8 9 9 9 9 9 10 10 10 11 11 11
12 12 11 11 10 10 10 9 9 9 9 9 9 9 9 9 9 8 8 7 7 8 8 8 7 7 7 7 7 7 7 8 8 9 9 9 9 10 10 10 11 11 11
12 11 11 11 10 10 10 9 9 9 9 9 9 9 9 9 8 8 8 8 7 8 8 8 8 7 7 7 7 7 7 7 8 8 8 9 9 9 9 10 10 11 11
12 11 11 11 10 10 10 10 9 9 9 9 9 9 9 9 8 8 8 8 7 7 7 7 7 7 7 7 7 7 7 7 7 8 8 8 9 9 10 10 10 10 10
12 11 11 11 10 10 10 10 9 10 10 10 9 9 9 9 9 8 8 8 8 7 7 7 7 7 7 7 7 7 7 6 7 7 8 8 9 9 10 9 10 10 10
12 11 11 10 10 10 10 10 10 10 10 10 9 9 9 9 9 8 8 7 7 7 7 7 7 7 7 6 6 6 7 7 7 7 8 8 9 9 9 9 9 9 9
12 11 11 11 11 10 10 10 10 10 10 9 9 9 9 9 9 8 8 7 7 7 7 7 6 6 6 6 7 6 7 7 7 7 8 8 8 8 9 9 9 9 9
12 11 11 11 11 11 11 11 11 10 10 10 9 9 9 9 8 8 8 7 7 7 6 6 6 6 6 7 7 7 7 7 7 7 8 8 8 8 9 9 9 9 9
12 11 11 11 11 11 11 10 11 10 10 10 10 9 9 9 8 8 8 8 7 7 7 6 6 7 7 7 7 7 7 7 7 7 7 8 8 8 8 9 9 9 9
12 11 11 11 11 11 10 10 10 10 10 10 10 9 9 9 8 8 8 7 7 7 7 7 7 7 7 7 7 7 7 7 7 7 7 7 8 8 8 8 9 9 9
11 11 11 11 10 10 10 10 10 10 10 10 10 10 9 9 8 8 8 7 7 7 7 7 7 7 7 7 7 7 7 7 7 7 7 7 8 8 8 8 9 9 9
11 11 11 10 10 11 11 11 10 10 10 10 10 10 9 9 8 8 8 7 7 7 7 7 7 7 7 7 7 7 7 7 7 7 7 7 8 8 8 8 9 9 9
11 11 11 10 10 11 11 10 10 10 10 10 10 9 9 8 8 8 8 8 7 7 7 7 7 7 7 7 7 7 7 7 7 7 7 8 8 8 8 8 9 9 9
11 11 11 11 10 10 10 10 10 10 10 10 9 9 9 8 8 8 8 8 7 7 7 7 7 7 7 7 7 7 7 7 7 7 8 8 8 8 8 9 9 9 9
10 11 11 10 10 10 10 10 10 10 10 10 9 9 9 8 8 8 8 8 7 7 7 7 7 7 7 7 7 7 7 8 8 8 8 8 8 8 8 9 9 9 9
10 10 10 10 10 10 10 10 10 10 10 9 9 9 9 8 8 8 8 7 7 7 7 7 7 7 7 7 7 7 8 8 8 8 8 8 8 8 8 8 9 9 9
10 10 10 10 10 10 10 10 10 10 9 9 9 9 9 8 8 8 8 7 7 7 7 7 7 7 7 7 7 7 8 8 8 8 8 8 8 8 8 8 9 9 9
9 9 9 9 9 9 9 9 9 9 9 9 9 9 8 8 8 8 8 7 7 7 7 7 7 7 7 7 7 7 7 8 8 8 8 8 8 8 8 8 9 9 9
Wind_Speed
4 4 5 6 7 7 8 8 8 9 9 10 11 11 11 11 11 11 12 12 12 13 13 13 13 13 12 11 10 10 10 10 11 10 8 6 6 6 5 4 6 7 8
5 5 6 6 7 8 9 9 9 10 10 11 11 12 12 12 12 12 13 13 13 13 14 14 14 12 13 13 11 12 11 10 11 12 9 7 7 6 5 4 3 4 4
5 6 6 7 8 8 9 9 10 10 11 11 12 12 12 12 12 13 13 13 14 14 14 14 14 14 14 13 13 13 12 11 11 11 11 7 6 6 5 4 3 2 3
6 7 7 8 8 9 10 10 10 11 11 12 12 12 12 13 13 13 13 13 14 14 14 14 14 15 15 14 13 14 13 13 12 12 11 8 7 6 6 5 4 3 3
6 8 8 8 9 9 10 10 11 11 12 12 12 12 13 12 12 12 12 14 14 14 14 14 15 14 12 11 12 12 12 12 12 12 11 9 8 6 6 5 5 4 3
7 8 8 9 9 10 10 11 11 11 12 12 12 13 13 12 6 5 11 15 15 15 15 15 15 15 15 15 16 16 15 15 14 13 12 11 10 9 7 6 5 5 4
7 8 9 9 10 10 11 11 11 12 12 12 13 13 13 13 8 9 10 13 16 16 15 14 14 14 13 15 16 20 20 20 18 16 15 13 11 9 9 10 9 7 5
8 8 9 9 10 10 11 12 12 11 12 12 12 13 13 13 9 10 10 14 16 16 16 16 15 15 15 13 14 15 16 17 18 18 17 14 12 9 9 10 8 7 5
8 9 9 9 10 11 11 12 12 12 12 12 12 13 13 13 10 11 11 12 13 15 15 15 15 15 13 10 13 15 16 15 14 14 13 11 7 4 5 8 8 8 6
8 9 9 9 10 11 12 12 12 11 12 13 13 13 14 14 10 9 10 11 13 13 12 13 13 15 11 10 14 15 16 15 14 13 14 13 13 11 10 11 10 9 7
8 9 9 10 10 11 11 11 12 12 12 13 14 13 13 13 12 10 11 10 12 12 11 11 9 12 14 13 14 14 14 12 13 12 12 13 13 12 12 13 12 10 9
8 9 10 10 10 10 11 12 12 12 12 13 12 13 11 10 10 8 10 13 13 13 12 11 8 7 11 13 13 13 12 10 12 11 11 12 12 12 12 12 12 12 9
9 10 10 11 10 11 11 12 11 11 11 11 11 11 11 10 7 10 12 13 13 12 12 10 9 6 9 11 15 14 12 12 12 12 12 12 12 11 10 10 11 10 10
10 10 10 11 11 11 10 10 11 11 11 11 11 11 11 10 9 7 6 7 10 12 12 11 12 13 13 12 9 12 13 12 12 12 12 11 10 10 10 10 10 10 9
10 11 11 11 11 10 11 10 12 11 11 11 12 11 12 12 8 6 8 9 8 7 8 8 9 9 9 10 10 10 11 11 12 12 11 11 10 10 10 10 10 10 10
10 11 10 10 9 10 11 11 11 14 14 15 16 15 13 13 13 12 11 12 12 10 8 9 9 9 9 9 10 10 10 11 11 11 11 11 11 11 11 10 10 10 10
11 11 10 11 10 10 11 12 12 11 13 16 17 17 17 16 15 14 13 12 12 10 8 10 9 9 9 9 9 10 10 10 10 11 11 11 10 10 11 11 11 11 10
12 11 11 11 11 11 11 11 11 12 12 11 9 14 16 16 16 15 13 9 9 8 9 10 9 9 8 8 9 9 9 9 9 10 10 10 10 10 10 11 11 12 11
11 10 9 10 10 11 11 11 11 12 11 10 10 6 9 12 14 14 10 8 9 8 8 8 8 8 7 7 8 8 8 8 9 10 10 10 10 10 10 11 11 12 11
11 12 10 10 11 11 10 11 11 11 10 10 10 9 7 7 7 6 6 7 7 7 7 7 7 6 6 7 7 8 8 8 9 9 9 10 10 10 11 12 11 11 11
10 9 9 10 11 11 10 10 10 10 10 10 9 7 5 8 9 8 7 6 6 6 7 6 6 6 6 6 7 8 9 8 9 9 9 10 10 10 10 10 10 11 11
10 10 9 10 10 10 9 10 10 11 10 10 9 7 4 7 8 7 7 6 6 6 6 6 5 5 5 6 7 8 8 9 9 9 9 10 10 10 10 10 10 9 10
11 11 10 9 9 8 9 10 10 10 9 9 8 7 6 6 7 7 7 6 5 5 5 5 5 5 6 6 6 7 7 8 9 9 9 10 10 10 10 10 11 11 11
11 11 10 9 9 9 9 9 9 9 8 8 8 7 6 6 7 7 6 5 4 4 4 4 5 6 7 7 6 6 7 7 8 9 11 10 10 10 10 10 11 12 12
10 9 9 9 8 8 8 9 9 8 7 7 7 7 6 6 6 5 5 4 4 4 4 4 4 5 7 9 8 6 3 3 2 5 9 9 10 11 11 11 11 11 12
9 9 8 7 7 7 8 8 8 7 7 6 6 6 6 6 6 5 5 4 4 3 3 3 4 5 6 8 6 3 4 4 3 4 6 9 10 10 11 10 12 12 12
Wind_Direction
274 280 289 290 292 291 288 288 288 287 287 282 281 280 280 278 275 271 270 274 269 268 268 264 260 264 264 261 257 254 253 255 264 271 275 279 278 277 270 256 245 229 213
278 281 285 289 290 289 290 292 289 285 284 283 281 279 278 277 275 272 270 271 269 268 266 266 264 261 256 257 257 256 255 255 261 268 273 275 270 263 253 245 244 227 207
285 285 288 289 291 290 292 290 288 287 286 286 282 278 277 278 276 273 271 270 269 267 266 264 263 262 260 257 255 255 253 249 247 256 261 265 269 258 245 231 213 192 170
284 286 287 290 292 292 291 289 288 288 287 285 282 279 278 276 275 273 272 271 269 267 264 263 262 259 257 256 255 253 253 254 250 250 253 254 254 252 233 221 203 175 157
282 286 289 292 292 291 289 288 288 287 286 284 282 279 277 275 271 276 280 278 274 270 266 262 259 259 268 265 263 260 254 249 249 245 246 244 243 241 231 222 208 176 166
278 285 292 294 293 292 291 289 288 287 286 285 282 281 280 278 294 285 277 282 278 273 269 265 262 252 244 236 246 259 265 260 256 253 248 243 238 236 231 227 209 193 188
279 285 289 292 293 294 294 293 292 292 289 286 285 284 282 281 267 250 252 271 273 270 268 265 264 262 250 247 235 230 241 246 252 258 258 253 244 230 227 222 210 205 199
280 284 289 292 293 294 293 293 293 292 291 289 288 287 284 281 262 248 248 263 266 265 262 261 260 262 260 256 255 250 246 238 232 235 245 250 249 245 232 230 221 203 193
281 285 289 293 293 293 293 295 296 294 291 290 288 285 283 282 263 245 247 273 266 264 262 259 258 258 252 241 252 257 257 254 242 232 238 247 259 241 236 230 213 201 200
286 289 291 290 289 290 293 295 295 292 288 289 288 286 284 282 273 244 238 269 271 271 267 261 247 245 255 227 244 249 252 251 250 232 220 223 229 223 214 226 222 210 205
288 289 288 287 286 286 289 290 291 290 289 289 289 287 283 278 272 245 229 259 271 275 274 269 261 210 221 226 238 249 253 261 255 246 236 226 221 218 215 216 221 217 211
283 284 286 287 288 290 289 288 289 288 287 285 286 287 286 279 267 256 225 237 262 274 274 273 273 201 211 222 232 243 249 255 252 245 236 229 221 216 215 214 213 216 217
279 282 286 288 288 286 286 287 287 284 285 290 292 293 294 295 279 227 230 237 240 255 269 279 285 258 235 235 233 232 232 235 238 236 232 229 224 218 214 209 208 209 208
277 282 286 286 286 286 285 285 289 293 294 294 294 294 295 296 294 290 276 258 238 246 260 258 241 238 242 254 235 218 225 230 231 231 231 228 223 213 210 207 203 196 198
275 280 283 284 286 288 285 283 285 288 290 289 293 294 294 295 311 334 304 295 297 301 300 278 264 250 236 233 233 227 222 220 223 228 229 225 218 211 207 206 202 197 198
272 277 282 286 289 288 291 290 262 252 260 251 251 262 278 279 291 293 283 275 274 276 276 264 258 252 244 236 231 226 222 221 219 220 220 219 214 209 206 203 199 201 202
265 276 283 287 289 288 291 293 297 284 248 242 242 243 245 265 274 276 274 273 265 251 248 254 254 252 246 238 232 228 224 219 216 216 215 213 212 208 204 201 198 199 203
263 268 268 277 281 285 288 289 290 295 302 302 263 231 235 245 254 260 262 268 263 237 245 253 255 251 241 235 233 229 224 218 211 212 211 211 208 204 202 201 199 199 200
263 269 273 280 283 283 285 286 287 289 293 298 305 280 228 242 244 247 242 250 271 269 258 255 253 250 242 234 232 228 222 216 211 206 204 206 206 204 204 204 202 196 199
258 254 259 276 280 280 281 285 289 293 295 299 302 307 310 297 291 273 248 257 268 270 268 264 257 247 238 230 227 222 217 212 210 209 205 203 205 204 204 205 202 197 200
268 261 235 258 271 277 283 288 292 293 295 300 303 309 307 299 297 294 287 277 274 270 264 264 256 241 230 222 220 217 213 210 207 205 203 203 203 203 203 202 201 201 200
268 269 267 271 278 280 287 289 290 292 297 300 302 304 254 279 294 296 296 292 284 275 263 257 251 240 233 222 217 215 211 209 207 204 202 202 201 201 202 202 200 198 197
264 267 268 271 273 275 276 279 285 292 298 304 303 307 310 304 302 306 304 303 294 277 268 256 246 236 228 226 224 219 213 208 205 200 201 202 201 200 201 201 199 197 199
265 266 269 273 276 279 282 287 290 295 301 306 305 304 307 308 309 314 313 308 302 289 273 258 248 237 229 227 223 220 218 215 212 205 204 205 203 201 199 201 203 201 198
268 269 270 273 278 281 286 290 295 302 307 308 309 311 313 314 316 314 313 306 294 287 281 266 251 239 231 231 231 223 162 144 233 230 205 210 210 206 203 203 204 203 198
273 270 270 274 279 282 286 292 299 302 305 307 311 316 320 321 322 321 322 321 310 299 292 281 262 249 238 235 227 180 147 166 199 252 238 217 212 207 204 208 208 204 199
Height
1524 1523 1521 1520 1518 1517 1515 1513 1512 1510 1508 1506 1505 1503 1502 1501 1499 1498 1497 1496 1495 1494 1494 1493 1492 1492 1493 1493 1493 1493 1493 1492 1491 1490 1490 1488 1487 1487 1487 1488 1490 1492 1495
1521 1519 1518 1516 1514 1513 1512 1509 1507 1505 1503 1502 1500 1498 1496 1495 1494 1492 1491 1491 1489 1489 1488 1487 1487 1487 1486 1487 1487 1487 1487 1487 1487 1485 1485 1485 1484 1483 1484 1484 1486 1487 1489
1518 1516 1514 1512 1511 1509 1507 1505 1503 1501 1498 1496 1495 1493 1491 1490 1488 1487 1486 1484 1483 1482 1482 1481 1481 1481 1480 1481 1481 1481 1481 1481 1481 1481 1480 1480 1480 1480 1480 1481 1482 1483 1485
1514 1512 1511 1509 1507 1505 1502 1500 1498 1496 1494 1491 1489 1488 1486 1484 1483 1481 1480 1478 1477 1476 1475 1475 1474 1474 1474 1474 1474 1474 1475 1476 1476 1476 1475 1475 1475 1475 1476 1477 1478 1479 1481
1510 1509 1507 1505 1503 1500 1498 1496 1494 1491 1489 1487 1484 1482 1481 1479 1478 1476 1475 1473 1471 1470 1469 1468 1467 1467 1467 1467 1468 1469 1469 1470 1470 1470 1470 1470 1471 1471 1472 1473 1474 1476 1478
1506 1505 1503 1501 1499 1497 1494 1492 1489 1486 1484 1482 1479 1477 1475 1474 1472 1470 1468 1466 1464 1463 1462 1461 1460 1459 1459 1459 1459 1461 1462 1463 1464 1465 1465 1465 1466 1467 1468 1469 1471 1472 1474
1502 1501 1499 1497 1495 1492 1490 1487 1485 1482 1479 1476 1474 1472 1469 1467 1465 1463 1461 1459 1457 1456 1454 1453 1453 1453 1453 1453 1452 1452 1453 1454 1456 1458 1459 1460 1461 1462 1464 1465 1466 1468 1470
1499 1497 1495 1493 1490 1488 1485 1483 1480 1477 1474 1471 1468 1466 1463 1461 1458 1456 1454 1451 1450 1448 1447 1446 1445 1445 1445 1446 1446 1447 1447 1448 1449 1450 1452 1454 1457 1458 1459 1461 1462 1464 1466
1495 1493 1491 1488 1486 1483 1481 1478 1475 1472 1469 1466 1463 1460 1457 1454 1452 1449 1447 1445 1443 1441 1440 1439 1438 1437 1438 1438 1439 1439 1440 1441 1443 1444 1445 1447 1450 1452 1454 1456 1457 1459 1461
1491 1489 1487 1484 1481 1479 1476 1473 1470 1467 1464 1461 1458 1455 1451 1448 1446 1443 1441 1439 1437 1435 1434 1432 1430 1430 1431 1430 1431 1432 1433 1435 1436 1437 1438 1440 1443 1445 1448 1450 1453 1455 1457
1487 1485 1482 1479 1477 1474 1471 1468 1465 1462 1459 1455 1452 1449 1445 1442 1439 1437 1434 1432 1431 1430 1428 1426 1425 1424 1423 1424 1424 1425 1426 1428 1429 1431 1432 1434 1436 1439 1441 1444 1447 1450 1453
1482 1480 1478 1475 1473 1470 1467 1463 1460 1457 1454 1450 1446 1443 1440 1437 1434 1431 1429 1427 1425 1423 1421 1420 1419 1418 1417 1417 1417 1418 1419 1421 1423 1424 1426 1427 1430 1433 1436 1439 1442 1445 1448
1478 1475 1473 1470 1468 1465 1462 1459 1456 1453 1449 1446 1442 1438 1435 1432 1429 1426 1423 1421 1419 1417 1415 1414 1412 1411 1411 1411 1410 1411 1413 1414 1416 1418 1419 1421 1424 1427 1431 1433 1436 1439 1443
1473 1471 1468 1466 1463 1461 1457 1455 1452 1448 1445 1441 1437 1434 1430 1427 1424 1422 1419 1416 1413 1411 1409 1407 1405 1404 1404 1404 1404 1404 1406 1407 1409 1411 1413 1416 1419 1421 1425 1428 1431 1434 1438
1468 1466 1464 1461 1459 1455 1452 1450 1446 1443 1440 1436 1432 1429 1426 1422 1420 1416 1414 1411 1409 1407 1404 1401 1400 1399 1398 1398 1398 1399 1400 1401 1403 1405 1408 1410 1413 1416 1419 1423 1426 1430 1433
1463 1461 1459 1457 1454 1451 1448 1444 1440 1437 1434 1430 1426 1423 1419 1416 1413 1410 1408 1405 1402 1400 1398 1395 1394 1393 1392 1392 1392 1393 1394 1395 1397 1400 1402 1405 1408 1411 1415 1418 1422 1425 1429
1457 1455 1454 1451 1448 1446 1443 1439 1436 1432 1429 1424 1421 1417 1414 1410 1408 1405 1402 1399 1397 1394 1392 1390 1388 1387 1387 1387 1387 1388 1389 1390 1392 1395 1397 1400 1404 1407 1410 1414 1417 1421 1424
1451 1450 1448 1445 1443 1440 1437 1434 1431 1427 1424 1420 1416 1412 1408 1405 1402 1400 1397 1394 1391 1389 1387 1385 1383 1382 1382 1382 1382 1383 1384 1386 1388 1390 1393 1396 1400 1403 1406 1410 1413 1417 1420
1445 1444 1442 1440 1437 1435 1432 1429 1426 1422 1418 1415 1411 1408 1404 1401 1397 1394 1392 1389 1387 1384 1382 1380 1379 1378 1378 1378 1378 1379 1381 1382 1384 1386 1389 1393 1396 1399 1403 1406 1410 1413 1417
1439 1437 1435 1433 1432 1429 1427 1424 1421 1417 1414 1410 1407 1404 1400 1397 1393 1390 1387 1385 1382 1380 1378 1376 1375 1375 1374 1374 1375 1376 1377 1379 1381 1384 1387 1390 1393 1396 1399 1403 1406 1409 1413
1434 1432 1429 1427 1426 1424 1421 1419 1416 1413 1409 1406 1403 1399 1396 1393 1390 1386 1384 1381 1378 1376 1374 1373 1372 1371 1371 1371 1372 1373 1375 1377 1379 1382 1384 1387 1391 1394 1397 1400 1403 1406 1410
1428 1426 1424 1422 1421 1419 1416 1414 1411 1408 1405 1402 1399 1395 1392 1389 1386 1383 1380 1377 1374 1372 1371 1369 1369 1369 1369 1369 1370 1371 1373 1375 1377 1380 1382 1385 1388 1391 1394 1397 1400 1404 1407
1421 1420 1418 1417 1415 1413 1411 1409 1406 1404 1401 1398 1395 1392 1388 1385 1382 1379 1376 1373 1371 1369 1368 1367 1366 1366 1367 1367 1368 1370 1371 1373 1375 1378 1380 1383 1386 1389 1392 1395 1398 1401 1404
1415 1414 1413 1411 1410 1408 1406 1404 1402 1400 1397 1394 1391 1388 1385 1382 1379 1376 1373 1370 1368 1366 1365 1364 1364 1364 1365 1366 1367 1368 1370 1371 1374 1376 1378 1381 1383 1386 1389 1392 1395 1399 1402
1410 1409 1407 1406 1405 1403 1402 1400 1398 1396 1393 1390 1388 1385 1382 1379 1376 1373 1371 1368 1366 1364 1363 1362 1362 1362 1362 1364 1365 1366 1367 1368 1371 1373 1376 1378 1381 1384 1387 1389 1393 1396 1399
1405 1404 1402 1401 1400 1399 1398 1396 1394 1392 1389 1387 1385 1383 1380 1377 1374 1371 1369 1366 1364 1362 1361 1360 1360 1360 1360 1361 1362 1363 1364 1365 1368 1370 1373 1376 1378 1381 1384 1387 1390 1393 1396